Probability
0 0 0 0 0 0 0 0 0 0 0 0 0 0 0 0 1 2 2 3 4 4 5 4 4 3 3 2 2 2 1 1 2 4 5 5 4 3 2 1 0 0 0 0
0 0 0 0 0 0 0 0 0 0 0 0 0 0 0 0 0 1 2 3 4 3 3 3 3 3 4 4 3 2 1 0 1 3 4 3 3 2 1 0 0 0 0 0
0 0 0 0 0 0 0 0 0 0 0 0 0 0 0 0 0 0 1 4 4 3 1 1 2 3 5 6 4 3 2 1 0 2 3 2 2 2 1 0 0 0 0 0
0 0 0 0 0 0 0 0 0 0 0 0 0 0 0 0 0 0 1 2 3 2 1 0 1 2 4 5 3 2 1 1 0 1 2 2 2 1 0 0 0 0 0 0
0 0 0 0 0 0 0 0 0 0 0 0 0 0 0 0 0 0 0 1 1 1 1 0 0 1 3 3 2 1 1 1 1 0 1 1 1 1 0 0 0 0 0 0
0 0 0 0 0 0 0 0 0 0 0 0 0 0 0 0 0 0 0 0 0 0 0 0 0 2 3 3 2 2 2 2 2 1 0 0 0 1 1 0 0 0 0 0
0 0 0 0 0 0 0 0 0 0 0 0 0 0 0 0 0 0 0 0 0 0 0 1 2 4 6 5 2 1 1 3 3 1 0 0 0 0 0 0 0 0 0 0
0 0 0 0 0 0 0 0 0 0 0 0 0 0 0 0 0 0 0 0 0 0 0 1 3 6 7 4 1 0 1 2 3 1 0 0 0 1 1 1 0 0 0 0
0 0 0 0 0 0 0 0 0 0 0 0 0 0 1 1 1 2 1 0 0 0 0 1 3 5 5 3 1 0 0 1 2 1 0 0 0 1 2 1 0 0 0 0
0 0 0 0 0 0 0 0 0 0 0 0 0 1 1 2 2 2 2 1 0 0 0 0 1 3 3 3 3 1 0 0 0 0 0 0 0 1 1 1 0 0 0 0
0 0 0 0 0 0 0 0 1 1 1 1 1 1 1 1 2 2 1 1 0 0 0 0 1 2 3 4 4 2 0 0 0 0 1 1 1 0 0 0 0 0 0 0
0 0 0 0 0 0 0 0 1 2 2 2 2 2 1 1 2 1 1 0 0 0 0 0 0 2 4 5 5 4 2 0 0 0 1 1 1 0 0 0 0 0 0 0
0 0 0 0 0 0 0 0 1 2 3 3 3 2 1 1 2 1 0 0 0 0 0 0 0 1 3 4 4 5 4 2 1 1 2 1 0 0 1 1 0 0 0 0
0 0 0 0 0 0 0 0 1 2 2 2 2 1 1 1 1 1 0 0 0 0 0 0 0 1 2 3 4 4 4 3 3 3 4 3 2 1 2 1 0 0 0 0
0 0 0 0 0 0 0 0 0 1 1 1 1 0 0 0 0 0 0 0 0 0 0 0 0 0 1 2 3 4 4 4 4 5 6 5 4 3 3 2 0 0 1 1
0 0 0 0 0 0 0 0 0 0 0 0 0 0 0 0 0 0 0 0 0 0 0 0 0 0 0 1 2 3 4 5 5 5 6 5 4 4 4 3 1 2 3 2
0 0 0 0 0 0 0 0 0 0 0 0 0 0 0 0 0 0 0 0 0 0 0 0 0 0 0 0 1 2 3 4 5 6 5 4 3 3 4 3 3 3 3 4
0 0 0 0 0 0 0 0 0 0 0 0 0 0 0 0 0 0 0 0 0 0 0 0 0 0 0 0 0 2 3 3 4 5 5 4 3 3 3 3 3 3 3 4
0 0 0 0 0 0 0 0 0 0 0 0 0 0 0 0 0 0 0 0 0 0 0 0 0 0 0 0 1 2 2 2 3 3 4 3 3 3 3 3 3 3 3 4
0 0 0 0 0 0 0 0 0 0 0 0 0 0 0 0 0 0 1 1 0 0 0 0 0 0 0 0 1 1 1 1 1 1 2 3 3 3 3 3 3 3 3 4
0 0 0 0 0 0 0 0 0 0 0 0 0 0 0 0 0 0 1 2 1 0 0 0 0 1 1 0 0 0 0 0 0 0 1 2 3 3 3 3 3 3 3 3
0 0 0 0 0 0 0 0 0 0 0 0 0 0 0 0 0 0 1 2 1 0 0 0 1 2 2 1 0 0 0 1 1 0 0 1 3 3 3 3 3 3 3 3
0 0 0 0 0 0 0 0 0 0 0 0 0 0 0 0 0 0 0 1 1 0 0 0 1 2 2 1 0 0 1 2 1 0 0 1 2 3 3 3 3 3 3 3
0 0 0 0 0 0 0 0 0 0 0 0 0 0 0 0 0 0 0 0 0 0 0 0 1 1 1 0 0 0 1 2 1 0 0 0 2 3 3 3 3 3 3 3
0 0 0 0 0 0 0 0 0 0 0 0 0 0 0 0 0 0 0 0 0 0 0 0 0 0 0 0 0 0 1 1 0 0 0 0 2 3 3 3 3 3 3 3
0 0 0 0 0 0 0 0 0 0 0 0 0 0 0 0 0 0 0 0 0 0 0 0 0 0 0 0 0 0 0 0 0 0 0 0 1 3 3 3 3 2 2 2
Wind_Speed
3 5 5 4 4 2 3 3 3 2 2 4 5 5 4 4 6 6 6 6 7 7 6 5 6 6 6 6 5 5 5 5 4 3 2 2 2 2 2 1 2 2 1 2
6 4 2 2 4 5 5 5 3 3 2 4 5 6 4 3 5 5 6 6 6 6 6 6 6 6 6 6 6 5 6 6 5 3 2 1 2 2 2 1 2 2 1 1
4 2 3 5 6 6 6 5 4 3 3 5 5 6 5 4 4 4 4 4 5 6 7 7 7 7 7 6 7 5 6 7 6 5 3 2 2 2 2 2 2 2 1 1
2 2 5 6 5 5 5 3 4 5 6 3 4 4 4 4 5 4 4 4 5 6 7 6 7 7 7 7 6 6 6 6 7 6 5 4 3 3 3 2 2 2 2 2
3 3 5 5 4 5 1 2 4 5 6 5 5 6 3 4 4 3 3 3 3 5 6 6 7 7 6 6 6 6 6 6 6 6 6 5 4 3 2 2 3 3 2 2
2 2 2 2 2 3 4 5 5 6 6 7 4 6 3 3 3 3 2 2 2 3 4 5 5 5 6 6 6 6 6 6 6 6 6 6 5 4 3 4 3 3 2 2
4 4 3 3 5 6 6 6 5 5 5 3 3 6 3 1 1 2 1 2 2 2 3 4 4 5 5 6 6 6 7 6 6 7 7 6 5 5 5 4 4 3 2 2
5 5 3 2 4 5 6 7 5 3 3 2 4 6 1 1 2 2 2 2 3 2 2 2 3 4 5 5 6 6 7 7 7 7 7 6 6 4 3 4 3 3 2 2
4 2 3 1 1 4 6 6 4 5 4 5 4 4 3 3 3 3 3 3 3 2 2 2 2 3 4 5 5 6 7 7 7 7 6 6 5 5 4 4 4 3 2 2
3 3 2 2 3 1 3 3 4 6 5 6 5 6 4 4 4 3 3 3 2 2 2 2 2 2 3 3 4 5 5 6 6 6 5 4 5 5 4 4 4 4 3 3
4 4 3 4 4 4 4 5 5 5 5 5 5 2 1 1 2 3 3 2 2 2 2 2 1 1 2 3 3 4 4 4 4 5 5 5 5 4 4 4 4 4 3 3
2 4 3 3 1 2 4 5 6 6 5 6 6 1 4 1 1 2 1 1 2 1 1 2 1 2 2 2 2 3 3 3 3 4 4 5 4 4 4 4 4 4 4 4
2 5 4 5 6 5 5 4 5 5 5 6 8 2 4 2 1 1 1 1 1 1 1 1 2 1 1 1 1 2 2 2 2 2 3 3 3 4 4 4 4 4 3 3
3 5 7 6 3 2 4 5 6 8 8 8 9 7 3 3 3 2 2 2 1 1 1 1 1 1 1 1 1 1 2 2 2 2 2 2 2 3 4 3 3 3 3 4
4 6 6 6 5 5 7 8 9 11 11 10 9 8 7 4 4 3 3 3 2 2 1 1 1 1 1 1 1 1 1 1 2 2 3 3 2 3 3 3 3 3 3 4
4 5 5 6 5 6 9 11 12 13 12 12 12 10 6 3 3 4 4 3 3 3 2 2 1 1 2 2 2 1 1 2 2 2 2 2 2 2 2 2 3 3 3 3
4 5 6 6 4 7 11 10 11 10 10 10 11 8 4 4 4 4 3 3 4 3 3 2 2 2 2 2 2 2 2 2 2 2 2 2 2 2 2 2 2 3 3 3
6 6 5 5 5 10 1 1 4 7 7 8 8 6 5 5 4 4 3 4 4 3 3 3 3 2 2 2 2 2 1 2 2 2 2 2 2 2 2 2 2 3 3 3
7 7 5 5 7 8 4 3 4 5 6 5 6 5 3 3 4 4 2 3 3 3 3 2 2 2 2 1 2 2 2 2 2 2 2 2 2 2 3 3 3 3 3 3
5 7 7 6 7 7 1 3 2 5 5 2 3 4 3 4 5 2 0 1 2 2 1 1 1 1 1 1 2 2 2 2 3 3 3 2 2 3 3 3 3 3 3 3
6 7 9 10 9 7 1 3 5 6 0 3 2 3 3 4 3 2 2 1 1 1 1 1 2 2 1 2 2 2 2 3 3 3 3 2 3 3 3 3 3 3 2 3
8 7 8 7 9 6 5 6 6 1 3 2 2 2 3 3 3 2 2 1 1 1 1 2 2 2 1 2 2 2 2 2 2 3 3 3 3 3 3 3 3 3 3 3
8 7 4 7 5 1 5 4 2 1 2 2 2 2 3 3 4 3 3 2 2 2 2 2 2 2 2 2 2 3 2 2 2 3 3 3 3 3 3 3 3 3 3 3
6 5 6 7 8 6 6 5 4 4 4 3 3 3 4 5 5 4 4 3 3 2 2 2 3 3 2 2 3 3 2 2 3 3 3 3 3 3 3 2 3 3 3 3
6 7 8 10 7 6 7 7 6 5 4 4 4 4 5 5 5 5 5 4 3 3 2 2 3 3 3 3 3 3 2 3 3 3 2 3 2 2 3 3 3 4 3 3
8 9 9 8 7 6 5 5 6 6 6 6 5 5 5 5 5 5 5 4 4 3 3 3 3 3 3 3 3 3 3 3 3 2 2 2 2 2 2 2 2 2 4 3
Wind_Direction
185 198 188 188 211 232 209 211 206 190 173 223 230 241 240 204 207 213 208 206 206 203 194 191 189 190 192 188 183 167 163 156 147 149 160 160 154 152 146 140 126 120 116 107
188 189 182 186 191 203 208 213 204 176 184 233 239 246 246 218 218 222 219 209 209 202 192 182 184 185 191 183 179 174 174 167 163 156 161 168 153 169 156 165 160 155 138 127
206 127 170 192 194 203 208 225 225 227 206 211 247 233 209 201 208 214 223 221 218 212 205 191 190 191 191 188 184 183 179 171 169 162 159 153 147 168 169 178 181 183 187 180
195 179 192 202 205 229 216 213 229 224 233 218 249 256 197 198 200 202 207 212 215 213 211 200 195 196 194 190 186 187 185 179 176 172 178 181 191 193 197 193 185 190 199 209
170 176 195 209 215 230 213 192 218 229 244 243 225 254 206 190 213 204 189 203 214 210 207 205 201 198 194 188 186 188 186 183 180 183 184 198 208 207 196 198 200 204 195 206
198 192 234 233 200 199 177 190 194 217 239 239 223 247 235 187 239 234 194 177 184 192 192 199 196 193 190 184 185 188 191 187 184 190 194 202 208 211 205 208 210 210 196 200
188 179 179 209 191 181 209 224 220 212 217 230 193 239 251 57 262 240 219 168 145 153 171 177 180 187 187 184 186 192 193 193 191 197 203 206 211 214 217 218 217 221 212 207
212 181 158 207 238 225 217 235 255 264 252 227 199 235 159 101 141 173 175 151 135 127 131 151 167 182 184 187 192 197 197 199 198 204 208 209 211 218 224 226 229 231 232 223
236 174 116 54 282 243 215 219 268 278 269 254 219 216 186 166 171 170 160 145 138 132 121 123 152 174 182 187 190 198 199 199 201 207 207 209 216 217 221 226 228 234 237 226
277 236 161 156 191 163 274 212 221 237 250 248 234 231 216 181 187 174 169 161 142 137 138 128 139 168 179 186 190 192 200 202 201 207 208 208 216 218 220 221 223 228 225 211
260 242 191 189 218 217 187 201 231 242 256 267 261 212 93 210 196 183 169 173 169 153 145 138 138 153 163 175 182 189 196 196 194 201 208 210 213 215 213 219 223 228 227 220
247 262 242 219 182 279 245 229 227 244 232 245 272 260 103 185 197 203 210 190 170 153 134 129 133 131 132 155 181 191 195 200 200 205 208 214 212 207 211 217 221 225 225 225
206 239 232 194 181 186 208 218 237 253 252 245 253 232 122 160 182 214 253 241 193 162 144 126 125 131 141 155 172 183 196 206 198 203 211 210 211 212 214 219 217 220 223 221
251 244 252 265 304 218 229 225 229 233 241 246 249 261 236 232 244 264 271 259 222 193 171 129 123 137 144 159 169 171 180 188 188 190 206 215 221 225 223 223 222 221 224 222
251 249 254 269 278 260 256 248 236 238 249 259 264 262 264 262 265 276 274 256 227 215 210 202 179 156 160 170 192 180 174 181 193 194 201 221 230 234 232 222 224 225 223 227
243 252 251 252 250 256 260 253 245 245 248 252 260 264 264 254 246 254 256 246 230 221 222 229 228 212 206 199 205 193 182 196 198 207 206 211 232 236 239 236 224 226 227 232
219 237 249 253 255 266 255 244 234 233 235 242 251 260 242 243 243 249 256 253 243 235 229 235 245 238 228 225 218 214 198 193 195 212 222 205 218 238 242 246 233 229 230 230
228 231 247 262 252 248 261 63 233 230 245 247 256 263 250 249 247 253 257 255 254 255 247 243 246 247 240 220 211 217 208 204 207 214 219 225 230 239 242 237 238 241 240 234
234 224 230 240 250 264 249 208 213 227 250 248 248 239 242 238 233 229 239 264 277 274 267 259 259 251 236 210 205 204 206 211 219 229 232 236 236 237 240 235 237 239 245 245
205 222 231 230 245 253 213 131 202 237 237 193 228 227 232 232 244 240 358 279 281 279 268 261 248 240 223 198 201 211 221 226 229 237 243 242 245 242 241 243 244 248 247 249
188 206 222 232 243 259 175 153 188 224 232 119 212 227 220 245 292 348 345 300 277 264 266 253 244 241 230 203 207 224 231 241 251 253 250 244 246 248 245 244 242 237 234 242
207 205 211 219 230 238 138 172 211 265 66 161 203 212 229 272 301 302 304 297 284 273 263 246 236 236 228 212 217 233 252 269 272 263 255 250 251 252 246 238 242 235 225 229
221 223 220 222 238 28 175 213 227 233 215 217 220 226 244 261 267 275 274 263 267 269 259 249 237 236 232 223 233 249 268 276 267 265 265 259 257 252 245 239 238 239 232 232
211 218 229 239 242 238 232 235 231 231 244 251 247 240 241 255 262 265 260 250 245 251 252 250 241 237 246 247 248 259 269 263 256 262 269 260 255 255 244 241 238 237 236 236
218 200 224 241 244 243 235 228 228 228 238 245 252 254 249 251 253 255 256 250 250 250 245 246 252 250 256 259 259 262 257 253 254 260 269 266 255 255 251 249 255 254 248 252
214 216 224 240 232 229 235 226 229 230 231 235 244 251 252 250 254 253 252 248 248 252 253 249 253 258 260 261 263 263 257 253 256 261 277 278 265 255 247 250 271 290 260 259